TFL14K EHAM-EGCC

Flight info

Callsign TFL14K
Flight time N/A
Altitude 34000
Route BERGI L60 OTBED
Aircraft B772/H-SDE2E3FGHIJ5LORVWXY/LB1D1

Departure

Time N/A
Airport Amsterdam Airport Schiphol (EHAM)

Arrival

Time 2026-05-01 13:38
Airport Manchester Airport (EGCC)
Time Latitude Longitude Altitude Speed Heading
2026-05-01 13:07 52.96286 2.79880 34241 ft 469 kts 279°
2026-05-01 13:07 52.96973 2.74591 34238 ft 469 kts 279°
2026-05-01 13:08 52.98338 2.64013 34236 ft 469 kts 279°
2026-05-01 13:08 52.99695 2.53425 34232 ft 469 kts 279°
2026-05-01 13:09 53.01042 2.42828 34230 ft 469 kts 279°
2026-05-01 13:09 53.02382 2.32211 34227 ft 469 kts 278°
2026-05-01 13:10 53.03711 2.21597 34224 ft 469 kts 278°
2026-05-01 13:10 53.05030 2.10977 34220 ft 469 kts 278°
2026-05-01 13:11 53.06341 2.00340 34218 ft 470 kts 278°
2026-05-01 13:11 53.07648 1.89644 34226 ft 479 kts 278°
2026-05-01 13:12 53.08983 1.78607 34221 ft 492 kts 278°
2026-05-01 13:12 53.10329 1.67434 34208 ft 493 kts 278°
2026-05-01 13:13 53.11665 1.56253 34196 ft 493 kts 277°
2026-05-01 13:13 53.12990 1.45067 34190 ft 492 kts 277°
2026-05-01 13:14 53.14291 1.33973 34191 ft 491 kts 277°
2026-05-01 13:14 53.15588 1.22815 34186 ft 490 kts 277°
2026-05-01 13:15 53.16872 1.11674 34180 ft 489 kts 277°
2026-05-01 13:15 53.18145 1.00537 34180 ft 489 kts 276°
2026-05-01 13:16 53.19406 0.89407 34176 ft 489 kts 276°
2026-05-01 13:16 53.20656 0.78270 34164 ft 488 kts 276°
2026-05-01 13:17 53.22481 0.61894 34063 ft 467 kts 276°
2026-05-01 13:17 53.23064 0.56597 33907 ft 463 kts 276°
2026-05-01 13:18 53.24210 0.46099 33317 ft 457 kts 275°
2026-05-01 13:18 53.24774 0.40894 32941 ft 455 kts 275°
2026-05-01 13:18 53.25334 0.35708 32566 ft 453 kts 275°
2026-05-01 13:18 53.25890 0.30542 32196 ft 451 kts 275°
2026-05-01 13:19 53.26441 0.25421 31667 ft 446 kts 275°
2026-05-01 13:19 53.26983 0.20353 31104 ft 441 kts 275°
2026-05-01 13:19 53.28043 0.10380 29982 ft 432 kts 275°
2026-05-01 13:20 53.28563 0.05459 29324 ft 428 kts 275°
2026-05-01 13:20 53.29336 0.00666 28785 ft 431 kts 287°
2026-05-01 13:20 53.30601 -0.03878 28349 ft 432 kts 291°
2026-05-01 13:21 53.33366 -0.12854 27359 ft 434 kts 292°
2026-05-01 13:21 53.34741 -0.17342 26887 ft 432 kts 292°
2026-05-01 13:21 53.36085 -0.21814 26397 ft 429 kts 291°
2026-05-01 13:21 53.37406 -0.26285 25932 ft 427 kts 291°
2026-05-01 13:22 53.38705 -0.30737 25465 ft 424 kts 291°
2026-05-01 13:22 53.39991 -0.35175 25000 ft 422 kts 291°
2026-05-01 13:22 53.41263 -0.39585 24536 ft 419 kts 290°
2026-05-01 13:22 53.42526 -0.43974 24079 ft 417 kts 290°
2026-05-01 13:23 53.43781 -0.48338 23593 ft 415 kts 290°
2026-05-01 13:23 53.45027 -0.52680 23067 ft 412 kts 290°
2026-05-01 13:23 53.46261 -0.56988 22576 ft 408 kts 290°
2026-05-01 13:23 53.47483 -0.61256 22121 ft 404 kts 290°
2026-05-01 13:24 53.48691 -0.65482 21675 ft 400 kts 291°
2026-05-01 13:24 53.49887 -0.69679 21233 ft 397 kts 291°
2026-05-01 13:24 53.51058 -0.73792 20790 ft 394 kts 291°
2026-05-01 13:25 53.53397 -0.82033 19968 ft 387 kts 291°
2026-05-01 13:25 53.54552 -0.86113 19515 ft 384 kts 291°
2026-05-01 13:25 53.55692 -0.90149 19078 ft 381 kts 291°
2026-05-01 13:25 53.56824 -0.94159 18664 ft 378 kts 291°
2026-05-01 13:26 53.57949 -0.98153 18221 ft 376 kts 291°
2026-05-01 13:26 53.59064 -1.02116 17762 ft 374 kts 291°
2026-05-01 13:26 53.60170 -1.06057 17325 ft 371 kts 291°
2026-05-01 13:26 53.61166 -1.10005 17002 ft 359 kts 284°
2026-05-01 13:27 53.61822 -1.14022 16817 ft 356 kts 278°
2026-05-01 13:27 53.62348 -1.18131 16622 ft 361 kts 277°
2026-05-01 13:27 53.63066 -1.26430 16044 ft 354 kts 265°
2026-05-01 13:28 53.62756 -1.34764 14778 ft 358 kts 261°
2026-05-01 13:28 53.62530 -1.38968 13988 ft 365 kts 261°
2026-05-01 13:29 53.62036 -1.47540 12541 ft 368 kts 261°
2026-05-01 13:29 53.61538 -1.55741 10809 ft 338 kts 261°
2026-05-01 13:30 53.60704 -1.69563 8374 ft 283 kts 260°
2026-05-01 13:31 53.59780 -1.75745 7835 ft 264 kts 241°
2026-05-01 13:31 53.56758 -1.82968 7333 ft 248 kts 229°
2026-05-01 13:32 53.54506 -1.87665 6336 ft 264 kts 230°
2026-05-01 13:33 53.51023 -1.94939 5011 ft 269 kts 229°
2026-05-01 13:33 53.48775 -1.99635 4197 ft 245 kts 229°
2026-05-01 13:34 53.46748 -2.03867 3561 ft 223 kts 229°
2026-05-01 13:34 53.44880 -2.07766 3029 ft 208 kts 229°
2026-05-01 13:35 53.43101 -2.11454 2478 ft 201 kts 230°
2026-05-01 13:35 53.42226 -2.13280 2187 ft 200 kts 229°
2026-05-01 13:35 53.40591 -2.16679 1716 ft 175 kts 229°
2026-05-01 13:36 53.39863 -2.18188 1480 ft 158 kts 229°
2026-05-01 13:36 53.39206 -2.19556 1258 ft 143 kts 230°
2026-05-01 13:36 53.38019 -2.22003 921 ft 140 kts 231°
2026-05-01 13:37 53.37401 -2.23297 743 ft 141 kts 231°
2026-05-01 13:37 53.36785 -2.24568 506 ft 138 kts 232°
2026-05-01 13:37 53.36177 -2.25838 314 ft 140 kts 231°
2026-05-01 13:37 53.35617 -2.26995 245 ft 113 kts 231°
2026-05-01 13:38 53.35243 -2.28023 236 ft 15 kts 259°
2026-05-01 13:38 53.35235 -2.28156 237 ft 8 kts 284°
2026-05-01 13:38 53.35255 -2.28194 237 ft 8 kts 333°
2026-05-01 13:39 53.35308 -2.28155 237 ft 0 kts 43°
2026-05-01 13:39 53.35310 -2.28153 237 ft 3 kts 43°
2026-05-01 13:39 53.35331 -2.28125 237 ft 0 kts 34°
2026-05-01 13:39 53.35358 -2.28081 237 ft 8 kts 45°
2026-05-01 13:40 53.35398 -2.28016 237 ft 8 kts 44°
2026-05-01 13:40 53.35408 -2.28000 237 ft 0 kts 44°
2026-05-01 13:41 53.35480 -2.27926 237 ft 25 kts 15°
2026-05-01 13:41 53.35592 -2.27903 237 ft 0 kts
2026-05-01 13:41 53.35626 -2.27897 237 ft 10 kts
2026-05-01 13:42 53.35691 -2.27885 237 ft 8 kts
2026-05-01 13:42 53.35701 -2.27884 237 ft 0 kts
2026-05-01 13:42 53.35702 -2.27884 237 ft 0 kts
2026-05-01 13:45 53.35708 -2.27883 237 ft 4 kts
2026-05-01 13:46 53.35710 -2.27882 237 ft 0 kts
2026-05-01 13:46 53.35731 -2.27878 237 ft 7 kts
2026-05-01 13:46 53.35753 -2.27874 237 ft 0 kts
2026-05-01 13:48 53.35800 -2.27867 237 ft 20 kts
2026-05-01 13:48 53.35940 -2.27842 237 ft 19 kts
2026-05-01 13:48 53.36068 -2.27861 237 ft 19 kts 326°
2026-05-01 13:48 53.36164 -2.28014 237 ft 19 kts 314°
2026-05-01 13:49 53.36228 -2.28123 237 ft 0 kts 319°